Regional Weather Roundup
Issued by NWS

Home | Current Version | Previous Version | Text Only | Print | Product List | Glossary Off
Versions: 1 2 3 4 5 6 7 8 9 10 11 12 13 14 15 16 17 18 19 20 21 22 23 24 25 26 27 28 29 30 31 32 33 34 35 36 37 38 39 40 41 42 43 44 45 46 47 48 49 50

642
ASUS43 KIND 281309
RWRIN

WEATHER ROUNDUP FOR INDIANA
NATIONAL WEATHER SERVICE INDIANAPOLIS IN
900 AM EDT WED JUN 28 2017

NOTE: "FAIR" INDICATES FEW OR NO CLOUDS BELOW 12,000 FEET WITH NO
SIGNIFICANT WEATHER AND/OR OBSTRUCTIONS TO VISIBILITY.

* - STATION DOES NOT REPORT WEATHER SUCH AS PRECIPITATION OR FOG.

+ - STATION NOT QUALITY CONTROLLED BY THE NATIONAL WEATHER SERVICE.
    USE DATA WITH CAUTION...ESPECIALLY DEWPOINT AND RELATIVE
    HUMIDITY OBSERVATIONS.

INZ001>003-010>013-019-020-281400-
NORTHWEST INDIANA

CITY           SKY/WX    TMP DP  RH WIND       PRES   REMARKS
GARY /AIRPORT/ CLOUDY    66  46  48 S13       30.04R
KNOX *+        MOSUNNY   64  39  39 S12       30.06R
LA PORTE +     CLOUDY    63  51  64 S8        30.06R
MICHIGAN CITY+ MOSUNNY   63  50  63 S6G16     30.05R
MONTICELLO +   CLOUDY    63  51  66 S8        30.07S
RENSSELAER +   CLOUDY    64  46  52 S10       30.08R
VALPARAISO     CLOUDY    65  52  62 S7        30.06R

$$

LMZ046-743>745-281400-
SOUTHERN LAKE MICHIGAN

STATION/POSITION TIME  TEMP    WIND        PRES    WAVE
                       AIR SEA DIR/SP/G            HT
                 (UTC) (F)     (DEG/KT/KT) (MB)    (FT)
BURNS HARBOR     1240   65     180/ 13/ 18 1017.3R
MICHIGAN CITY    1240   65     160/ 14/ 16   N/A
5NW MICH CITY    1300   65 66  180/ 16/ 19   N/A     2

$$

INZ004-005-014>016-021>024-281400-
NORTH CENTRAL INDIANA

CITY           SKY/WX    TMP DP  RH WIND       PRES   REMARKS
ELKHART        MOSUNNY   64  48  55 S12       30.08R
GOSHEN         CLOUDY    65  49  56 S9        30.09R
LOGANSPORT +   MOSUNNY   63  52  67 S10       30.10R
PERU/GRISSOM   CLOUDY    65  55  68 S10       30.10R
ROCHESTER +    CLOUDY    68  52  56 S8        30.09R
SOUTH BEND     CLOUDY    65  50  58 S12       30.07R
WARSAW +       CLOUDY    63  50  63 S5        30.10R

$$

INZ006>009-017-018-025>027-281400-
NORTHEAST INDIANA

CITY           SKY/WX    TMP DP  RH WIND       PRES   REMARKS
ANGOLA *+      SUNNY     64  55  72 S8        30.09F
AUBURN +       SUNNY     63  50  63 CALM      30.11F
FORT WAYNE     PTSUNNY   64  52  64 S9        30.11F
HUNTINGTON +   SUNNY     63  52  66 S7        30.11S
KENDALLVILLE + SUNNY     65  50  57 S10       30.10S

$$

INZ028-029-035-036-043>045-051>053-281400-
WEST CENTRAL INDIANA

CITY           SKY/WX    TMP DP  RH WIND       PRES   REMARKS
CRAWFORDSVL +  CLOUDY    63  54  73 S9        30.11R
GREENCASTLE +  CLOUDY    63  52  67 S8        30.11S
LAFAYETTE      CLOUDY    64  53  67 S9        30.09R
TERRE HAUTE    CLOUDY    63  52  67 S6        30.11R

$$

INZ030>032-037>040-046>048-054>057-064-065-281400-
CENTRAL INDIANA

CITY           SKY/WX    TMP DP  RH WIND       PRES   REMARKS
ANDERSON       SUNNY     70  50  49 MISG        N/A
CP ATTERBURY + CLOUDY    63  54  72 SE5       30.14S
COLUMBUS       SUNNY     63  52  67 S3        30.15R
FRANKFORT +    CLOUDY    67  53  62 S6        30.11S
GREENWOOD *+   CLOUDY    64  51  61 S9        30.14R
INDIANAPOLIS   CLOUDY    65  52  62 S12       30.11R
-EAGLE CREEK   CLOUDY    66  51  58 S7        30.11S
KOKOMO +       MOSUNNY   65  53  65 S10       30.12R
MT COMFORT *+  MOSUNNY   63  52  67 S9        30.13S
SHELBYVILLE    CLOUDY    65  51  60 S9        30.13S
ZIONSVILLE +   CLOUDY    64  51  64 S8        30.12R

$$

INZ033-034-041-042-049-050-058-059-281400-
EAST CENTRAL INDIANA

CITY           SKY/WX    TMP DP  RH WIND       PRES   REMARKS
MUNCIE         SUNNY     68  50  52 S10       30.12F
RICHMOND +     SUNNY     61  54  77 S8        30.16S HAZE

$$

INZ060-061-067>069-081>083-085>088-281400-
SOUTHWEST INDIANA

CITY           SKY/WX    TMP DP  RH WIND       PRES   REMARKS
EVANSVILLE     SUNNY     67  56  67 SE5       30.11R
HUNTINGBURG *+ CLOUDY    66  57  72 SE6       30.13R
WASHINGTON +   CLOUDY    63  56  77 S5        30.11R

$$

INZ062-063-066-070>080-084-089>092-281400-
SOUTH CENTRAL AND SOUTHEAST INDIANA

CITY           SKY/WX    TMP DP  RH WIND       PRES   REMARKS
BEDFORD +      CLOUDY    63  52  67 SE6       30.12S
BLOOMINGTON    CLOUDY    62  51  67 S6        30.12R
MADISON *+     SUNNY     64  50  59 SE6       30.18S
NORTH VERNON + SUNNY     64  52  63 SE5       30.15S
SEYMOUR +      MOSUNNY   64  55  72 SE3       30.14S

$$





USA.gov is the U.S. government's official web portal to all federal, state and local government web resources and services.